Погода в Шамонино

Россия / Республика Башкортостан     54°39′29″N   56°12′44″E
темп.,
°C
ветер,
м/с
пор.,
м/с
влажн.,
%
обл.,
%
осадки,
мм/ч
давл.,
гПа
погр.,
м
16 мая, вс
вс1623:00+21ююз234736 0.0 102142
02:00+19ю345632 0.0 102154
05:00+17ююв326010 0.0 102238
08:00+20ю35554 0.0 1022169
11:00+26ююз46395 0.0 1022550
14:00+30ююз56255 0.0 10212634
17:00+30ююз45260 0.0 10202791
20:00+26юз25360 0.0 1019173
17 мая, пн
пн1723:00+20ююв35553 0.0 101982
02:00+19ю495257 0.0 1019153
05:00+17ююв356099 0.0 102070
08:00+20ю485632 0.0 1021228
11:00+26ююз563929 0.0 1020729
14:00+30зюз463095 0.0 10192644
17:00+29зюз353193 0.0 10181544
20:00+21ю61157100 0.2 1019240
18 мая, вт
вт1823:00+21ююз7135011 0.5 1019319
02:00+18ююз34605 0.0 101880
05:00+16ю22675 0.0 101829
08:00+20зюз12565 0.0 1019194
11:00+25сз12465 0.0 1018692
14:00+28ссз354056 0.0 10181877
17:00+27с5641100 0.0 10171703
20:00+22с4955100 0.0 1018393
19 мая, ср
ср1923:00+18ссв411675 0.0 1019251
02:00+15св511720 0.0 1020286
05:00+13св410744 0.0 1020225
08:00+15всв45701 0.0 1021247
11:00+21в33575 0.0 1021751
14:00+24в23405 0.0 10211474
17:00+26ю22335 0.0 10201838
20:00+22ю35435 0.0 1020197
20 мая, чт
чт2023:00+17ююв4105098 0.0 1022245
02:00+15ююв411505 0.0 1022251
05:00+13ююв37530 0.0 1023139
08:00+17ююв37480 0.0 1024326
11:00+21ю44380 0.0 1024954
14:00+24ююв34310 0.0 10231445
17:00+25ююз24290 0.0 10211583
20:00+22з23400 0.0 1021241